Marcopolo 2

operational
NORAD ID: 20762 Int'l Des: 1990-074 Owner: BSB Country: UK
HEOCIRCULAR

About Marcopolo 2

Description loading...

Live Position

Loading 3D Globe...

Upcoming Passes

Altitude History

Altitude vs Time

uPlot chart will show altitude changes over time

Two-Line Element Set

1 20762U 90074A 25350.83811235 -.00000243 00000-0 00000-0 0 9993
2 20762 14.4768 8.0039 0007405 247.5448 112.9217 0.99211043 44391
Epoch: Dec 16, 2025 • Age: 11 hours

Current Status

Altitude 36080.5 km
Velocity 3.06 km/s
Sub-Earth Point 3.16°N, 20.45°W
Launch Date Aug 18, 1990
Age 35.3 years
Type other

Technical Details

Classification Payload
Mass 690.00 kg
Dry Mass 500.00 kg
Total Mass 1233.00 kg
Length 7.20 m
Diameter 2.20 m
Span 7.20 m
Shape Cyl
Manufacturer HSES
Bus Type HS-376
Phase Status Renamed
Owner/State BSB/UK

Large Constellations

Loading constellations...